Stündliche Wetter Homewood

Heute, 20 Juni, Sonntag

Zeit Temperatur Niederschläge Wind Luftdruck Luftfeuchtigkeit
00:00 +23°C° 0 mm 1 m/S 735 mmHg 98%
01:00 +23°C° 0.2 mm 2 m/S 736 mmHg 98%
02:00 +22°C° 0.2 mm 3 m/S 736 mmHg 98%
03:00 +21°C° 0.2 mm 4 m/S 736 mmHg 98%
04:00 +21°C° 0 mm 4 m/S 737 mmHg 97%
05:00 +21°C° 0 mm 4 m/S 738 mmHg 97%
06:00 +21°C° 0 mm 4 m/S 739 mmHg 97%
07:00 +23°C° 0 mm 4 m/S 739 mmHg 87%
08:00 +26°C° 0 mm 4 m/S 739 mmHg 78%
09:00 +28°C° 0 mm 4 m/S 740 mmHg 68%
10:00 +30°C° 0 mm 3 m/S 740 mmHg 62%
11:00 +31°C° 0 mm 3 m/S 739 mmHg 56%
12:00 +34°C° 0 mm 3 m/S 739 mmHg 50%
13:00 +34°C° 0 mm 3 m/S 739 mmHg 52%
14:00 +33°C° 0 mm 4 m/S 739 mmHg 55%
15:00 +33°C° 0 mm 4 m/S 739 mmHg 57%
16:00 +31°C° 0 mm 3 m/S 739 mmHg 64%
17:00 +30°C° 0 mm 2 m/S 739 mmHg 70%
18:00 +29°C° 0 mm 1 m/S 739 mmHg 77%
19:00 +28°C° 0 mm 2 m/S 739 mmHg 79%
20:00 +27°C° 0 mm 2 m/S 739 mmHg 80%
21:00 +26°C° 0 mm 2 m/S 739 mmHg 82%
22:00 +25°C° 0 mm 2 m/S 739 mmHg 86%
23:00 +25°C° 0 mm 2 m/S 739 mmHg 89%

Morgen, 21 Juni, Montag

Zeit Temperatur Niederschläge Wind Luftdruck Luftfeuchtigkeit
00:00 +24°C° 0 mm 2 m/S 739 mmHg 92%
01:00 +24°C° 0 mm 2 m/S 740 mmHg 94%
02:00 +24°C° 0 mm 2 m/S 740 mmHg 96%
03:00 +23°C° 0 mm 2 m/S 740 mmHg 99%
04:00 +23°C° 0.2 mm 2 m/S 740 mmHg 98%
05:00 +23°C° 0.2 mm 2 m/S 740 mmHg 97%
06:00 +24°C° 0.2 mm 2 m/S 741 mmHg 97%
07:00 +25°C° 0.1 mm 3 m/S 741 mmHg 93%
08:00 +26°C° 0.1 mm 3 m/S 741 mmHg 89%
09:00 +26°C° 0.1 mm 3 m/S 741 mmHg 85%
10:00 +27°C° 0.8 mm 3 m/S 741 mmHg 84%
11:00 +28°C° 0.8 mm 4 m/S 741 mmHg 82%
12:00 +29°C° 0.8 mm 4 m/S 741 mmHg 81%
13:00 +29°C° 0.9 mm 4 m/S 740 mmHg 80%
14:00 +28°C° 0.9 mm 4 m/S 740 mmHg 80%
15:00 +28°C° 0.9 mm 4 m/S 740 mmHg 79%
16:00 +28°C° 0.1 mm 4 m/S 740 mmHg 78%
17:00 +28°C° 0.1 mm 4 m/S 740 mmHg 77%
18:00 +27°C° 0.1 mm 4 m/S 740 mmHg 76%
19:00 +26°C° 0.2 mm 4 m/S 740 mmHg 80%
20:00 +25°C° 0.2 mm 4 m/S 740 mmHg 84%
21:00 +23°C° 0.2 mm 4 m/S 740 mmHg 88%
22:00 +23°C° 0.1 mm 4 m/S 740 mmHg 91%
23:00 +23°C° 0.1 mm 4 m/S 740 mmHg 93%

übermorgen, 22 Juni, Dienstag

Zeit Temperatur Niederschläge Wind Luftdruck Luftfeuchtigkeit
00:00 +22°C° 0.1 mm 4 m/S 739 mmHg 95%
01:00 +22°C° 1.4 mm 3 m/S 739 mmHg 96%
02:00 +22°C° 1.4 mm 3 m/S 739 mmHg 97%
03:00 +22°C° 1.4 mm 3 m/S 739 mmHg 98%
04:00 +21°C° 0.8 mm 2 m/S 739 mmHg 98%
05:00 +21°C° 0.8 mm 2 m/S 739 mmHg 98%
06:00 +20°C° 0.8 mm 2 m/S 740 mmHg 98%
07:00 +20°C° 0 mm 2 m/S 740 mmHg 96%
08:00 +20°C° 0 mm 2 m/S 741 mmHg 94%
09:00 +20°C° 0 mm 2 m/S 741 mmHg 93%
10:00 +21°C° 0 mm 2 m/S 741 mmHg 86%
11:00 +24°C° 0 mm 2 m/S 741 mmHg 78%
12:00 +25°C° 0 mm 3 m/S 742 mmHg 71%
13:00 +25°C° 0 mm 3 m/S 741 mmHg 69%
14:00 +26°C° 0 mm 3 m/S 741 mmHg 66%
15:00 +27°C° 0 mm 3 m/S 741 mmHg 63%
16:00 +26°C° 0 mm 3 m/S 741 mmHg 67%
17:00 +25°C° 0 mm 3 m/S 741 mmHg 70%
18:00 +24°C° 0 mm 2 m/S 741 mmHg 74%
19:00 +21°C° 0 mm 2 m/S 742 mmHg 77%
20:00 +20°C° 0 mm 2 m/S 742 mmHg 81%
21:00 +20°C° 0 mm 1 m/S 743 mmHg 85%
22:00 +19°C° 0 mm 1 m/S 742 mmHg 86%
23:00 +19°C° 0 mm 1 m/S 742 mmHg 87%

23 Juni, Mittwoch

Zeit Temperatur Niederschläge Wind Luftdruck Luftfeuchtigkeit
00:00 +18°C° 0 mm 1 m/S 742 mmHg 89%
01:00 +18°C° 0 mm 1 m/S 742 mmHg 89%
02:00 +18°C° 0 mm 1 m/S 742 mmHg 89%
03:00 +16°C° 0 mm 1 m/S 742 mmHg 89%
04:00 +18°C° 0 mm 1 m/S 743 mmHg 87%
05:00 +19°C° 0 mm 1 m/S 743 mmHg 84%
06:00 +19°C° 0 mm 1 m/S 744 mmHg 82%
07:00 +22°C° 0 mm 1 m/S 744 mmHg 73%
08:00 +24°C° 0 mm 1 m/S 744 mmHg 64%
09:00 +27°C° 0 mm 1 m/S 745 mmHg 55%
10:00 +28°C° 0 mm 1 m/S 745 mmHg 52%
11:00 +29°C° 0 mm 1 m/S 744 mmHg 48%
12:00 +31°C° 0 mm 1 m/S 744 mmHg 45%
13:00 +31°C° 0 mm 1 m/S 744 mmHg 43%
14:00 +31°C° 0 mm 1 m/S 744 mmHg 42%
15:00 +30°C° 0 mm 0 m/S 744 mmHg 40%
16:00 +30°C° 0 mm 1 m/S 744 mmHg 49%
17:00 +29°C° 0 mm 1 m/S 743 mmHg 57%
18:00 +27°C° 0 mm 1 m/S 743 mmHg 66%
19:00 +26°C° 0 mm 1 m/S 744 mmHg 68%
20:00 +24°C° 0 mm 1 m/S 744 mmHg 70%
21:00 +22°C° 0 mm 1 m/S 744 mmHg 72%
22:00 +22°C° 0 mm 1 m/S 744 mmHg 72%
23:00 +22°C° 0 mm 1 m/S 744 mmHg 72%

24 Juni, Donnerstag

Zeit Temperatur Niederschläge Wind Luftdruck Luftfeuchtigkeit
00:00 +21°C° 0 mm 1 m/S 744 mmHg 72%
01:00 +21°C° 0 mm 1 m/S 744 mmHg 71%
02:00 +21°C° 0 mm 1 m/S 744 mmHg 71%
03:00 +21°C° 0 mm 1 m/S 744 mmHg 71%
04:00 +21°C° 0 mm 1 m/S 744 mmHg 72%
05:00 +21°C° 0 mm 1 m/S 745 mmHg 74%
06:00 +22°C° 0 mm 1 m/S 745 mmHg 75%
07:00 +24°C° 0 mm 1 m/S 745 mmHg 70%
08:00 +26°C° 0 mm 2 m/S 745 mmHg 65%
09:00 +29°C° 0 mm 2 m/S 746 mmHg 61%
10:00 +30°C° 0 mm 2 m/S 745 mmHg 56%
11:00 +32°C° 0 mm 1 m/S 745 mmHg 51%
12:00 +33°C° 0 mm 1 m/S 745 mmHg 46%
13:00 +32°C° 0 mm 1 m/S 744 mmHg 51%
14:00 +31°C° 0 mm 1 m/S 744 mmHg 56%
15:00 +31°C° 0 mm 1 m/S 744 mmHg 62%
16:00 +30°C° 0 mm 1 m/S 744 mmHg 65%
17:00 +30°C° 0 mm 1 m/S 744 mmHg 68%
18:00 +29°C° 0 mm 1 m/S 744 mmHg 72%
19:00 +28°C° 0 mm 1 m/S 744 mmHg 76%
20:00 +26°C° 0 mm 2 m/S 744 mmHg 80%
21:00 +25°C° 0 mm 2 m/S 744 mmHg 84%
22:00 +25°C° 0 mm 2 m/S 744 mmHg 86%
23:00 +24°C° 0 mm 2 m/S 744 mmHg 88%

25 Juni, Freitag

Zeit Temperatur Niederschläge Wind Luftdruck Luftfeuchtigkeit
00:00 +24°C° 0 mm 2 m/S 744 mmHg 90%
01:00 +23°C° 0.1 mm 2 m/S 744 mmHg 92%
02:00 +23°C° 0.1 mm 1 m/S 744 mmHg 94%
03:00 +23°C° 0.1 mm 1 m/S 744 mmHg 95%
04:00 +23°C° 0 mm 1 m/S 744 mmHg 95%
05:00 +23°C° 0 mm 1 m/S 744 mmHg 95%
06:00 +24°C° 0 mm 2 m/S 744 mmHg 94%
07:00 +26°C° 0.1 mm 2 m/S 744 mmHg 86%
08:00 +27°C° 0.1 mm 2 m/S 744 mmHg 78%
09:00 +29°C° 0.1 mm 2 m/S 744 mmHg 70%
10:00 +30°C° 0.4 mm 2 m/S 744 mmHg 67%
11:00 +31°C° 0.4 mm 2 m/S 744 mmHg 64%
12:00 +31°C° 0.4 mm 2 m/S 743 mmHg 61%
13:00 +31°C° 0.1 mm 2 m/S 743 mmHg 60%
14:00 +32°C° 0.1 mm 2 m/S 742 mmHg 60%
15:00 +32°C° 0.1 mm 2 m/S 742 mmHg 59%
16:00 +31°C° 0 mm 2 m/S 742 mmHg 63%
17:00 +30°C° 0 mm 2 m/S 741 mmHg 68%
18:00 +29°C° 0 mm 3 m/S 741 mmHg 73%
19:00 +28°C° 0 mm 2 m/S 741 mmHg 77%
20:00 +27°C° 0 mm 2 m/S 741 mmHg 80%
21:00 +26°C° 0 mm 1 m/S 742 mmHg 84%
22:00 +25°C° 0.1 mm 1 m/S 742 mmHg 87%
23:00 +25°C° 0.1 mm 1 m/S 742 mmHg 89%
Mehr zeigen

Wir brauchen deine Erlaubnis

Meteoprog und unser Service Anbieter werden persönliche Daten aufbewahren, so wie Cookies, Geräte Bezeichnung oder ähnliche Technologien von deinem Gerät und Prozess, so wie Persönliche Daten Inhalte und Werbungen, genauso wie social Media und den Verkehr zu analysieren.

  • Aufbewahrung und/oder Zugang zu deiner Geräte Informationen.

    Cookies, Geräte Bezeichnung oder andere Informationen, können aufbewahrt oder Zugang zu deinem Gerät erhalten, für den Grund, der oben angegeben wird.

  • Personalisierte Werbung und Inhalte, Messungen, Einblick in das Publikum und Produkt Entwicklung.

    Werbungen und Inhalte können personalisiert werden, basierend auf ein Profil. Mehr Daten können besser personalisierte Werbungen und Inhalte hinzufügen. Werbung und Inhalte können gezeigt und gemessen werden. Einblicke über das Publikum, welche die Werbung gesehen haben und den Inhalt, können abgeleitet werden. So wie Daten können genutzt werden, um es zu verbessern oder die Benutzer Erfahrung zu verbessern das System und die Software.

Wenn du “Ich stimme zu” klickst, erlaubst du uns, die Cookies zu benutzen die Geräte Bezeichnung, den Web oder ähnliche Technologien zu benutzen. Deine Settings, können in deinem Gerät bei deinem Browser geändert werden.

Für den bestimmten Zweck, berechtigten Interessen beruhen darauf, mehr als auf den Inhalt. Du kannst mehr darüber in unseren Privaten und Cookie Politik lesen.